Location: Double Diamond Ranch
(30.2800°N, 103.5900°W)
Time: 12:38:26
(UTC-05:00)

Envisat - Visible Passes

Search period start: 19 July 2018 00:00
Search period end: 29 July 2018 00:00
Orbit: 764 x 766 km, 98.2° (Epoch: 19 July)

Date Brightness Start Highest point End Pass type
(mag) Time Alt. Az. Time Alt. Az. Time Alt. Az.
19 Jul 5.6 22:24:01 10° SW 22:27:06 16° W 22:30:12 10° WNW visible
20 Jul 4.3 21:45:28 10° SSW 21:50:11 40° W 21:54:57 10° NNW visible
22 Jul 5.3 22:12:05 10° SW 22:15:52 21° W 22:19:41 10° NW visible
23 Jul 3.8 21:34:05 10° S 21:39:00 53° W 21:43:58 10° NNW visible
24 Jul 5.9 22:40:36 10° WSW 22:41:37 11° W 22:42:39 10° W visible
25 Jul 4.9 22:00:22 10° SSW 22:04:39 28° W 22:08:57 10° NW visible
26 Jul 3.3 21:22:48 10° S 21:27:50 70° WSW 21:32:54 10° NNW visible
27 Jul 5.7 22:27:40 10° SW 22:30:22 14° W 22:33:04 10° WNW visible
28 Jul 4.5 21:48:49 10° SSW 21:53:26 36° W 21:58:06 10° NNW visible
